Location: Pagani
(40.7500°N, 14.6167°E)
Time: 22:38:54
(UTC+00:00)

Meteor 1-19 Rocket - Pass Details

Date: 15 May 2026
Orbit: 807 x 926 km, 81.2° (Epoch: 10 June)

Event Time Altitude Azimuth Distance (km) Brightness Sun altitude
Exits shadow 22:24:36 79° 331° (NNW) 909 4.3 -29.7°
Drops below altitude 10° 22:30:13 10° 8° (N) 2,596 7.6 -29.9°
Sets 22:32:44 0° 9° (N) 3,554 8.5 -29.9°
